Flag for Cameroon Weather past 2 weeks in Douala, Cameroon

Now
88 °F

Scattered clouds.


Feels Like: 98 °F
Forecast: 75 / 89 °F
Wind: 9 mph from Southwest

Location: Douala Obs.

Current Time: Dec 18, 2014 at 4:47:49 PM

Latest Report: Dec 18, 2014 at 4:00 PM


Visibility: 1 mi

Pressure: 29.80 "Hg

Humidity: 66%

Dew point: 75 °F

Location of DoualaLocation

Historic Weather in Douala — Graph

°F

Douala temperature yesterday

Maximum temperature yesterday: 90 °F (at 1:00 PM)
Minimum temperature yesterday: 75 °F (at 12:00 AM)
Average temperature yesterday: 81 °F

Past Weeks' High & Low Weather Summary

 TemperatureHumidityPressure
High91 °F (Dec 8, 2:00 PM)100% (Dec 4, 7:00 AM)29.95 "Hg (Dec 4, 7:00 AM)
Low73 °F (Dec 11, 8:00 PM)49% (Dec 16, 3:00 PM)29.74 "Hg (Dec 3, 4:00 PM)
Average82 °F84%29.84 "Hg
* Reported Dec 3 3:00 PM — Dec 18 3:00 PM, Douala, Weather by CustomWeather, © 2014

Note: Actual official high and low records may vary slightly from our data, if they occured in-between our weather recording intervals... More about our weather records

Advertising

Douala weather history for previous 24 hours

 ConditionsComfort  
Time TempWeatherWind HumidityBarometerVisibility
3:00 PM
Dec 18
90 °FScattered clouds.7 mph63%29.80 "Hg1 mi
2:00 PM91 °FScattered clouds.9 mph59%29.83 "Hg1 mi
1:00 PM90 °FScattered clouds.6 mph67%29.86 "Hg1 mi
12:00 PM90 °FScattered clouds.6 mph63%29.89 "Hg1 mi
11:00 AM86 °FScattered clouds.7 mph75%29.89 "Hg1 mi
10:00 AM84 °FScattered clouds.No wind79%29.92 "Hg1 mi
9:00 AM82 °FHaze.No wind84%29.92 "Hg1 mi
8:00 AM79 °FFog.No wind94%29.89 "Hg1 mi
7:00 AM75 °FFog.No wind100%29.89 "Hg1 mi
6:00 AM75 °FFog.No wind100%29.86 "Hg1 mi
5:00 AM75 °FFog.No wind94%29.86 "Hg1 mi
4:00 AM75 °FFog.No wind100%29.86 "Hg1 mi
3:00 AM77 °FFog.No wind94%29.86 "Hg1 mi
2:00 AM77 °FFog.No wind94%29.86 "Hg1 mi
1:00 AM77 °FFog.No wind89%29.86 "Hg1 mi
12:00 AM77 °FFog.No wind94%29.86 "Hg1 mi
11:00 PM
Dec 17
77 °FFog.No wind94%29.89 "Hg1 mi
10:00 PM77 °FFog.No wind94%29.89 "Hg1 mi
9:00 PM77 °FHaze.No wind94%29.86 "Hg1 mi
8:00 PM79 °FHaze.No wind94%29.86 "Hg1 mi
7:00 PM82 °FHaze.No wind79%29.80 "Hg1 mi
6:00 PM84 °FHaze.5 mph70%29.80 "Hg1 mi
5:00 PM88 °FHaze.9 mph66%29.80 "Hg2 mi
4:00 PM90 °FScattered clouds.7 mph63%29.77 "Hg1 mi
Weather by CustomWeather, © 2014

See weather overviewHow to use our weather pages